Hlavní strana
METAR-TAF:

METAR-TAF

Letiště :

Andrews-Murphy Airport

Andrews, Severní Karolína, Spojené státy americké

zeměpisná šířka: 35-11-42N, zeměpisná délka: 083-51-49W, výška: 517 m

Aktuální stav počasí

Zpráva byla vytvořena před 32 minutami, v 04:15 UTC
Bezvětří
Teplota 4°C
Vlhkost vzduchu 93%
Tlak 1014 hPa
Viditelnost: 16.1 km
Polojasno ve výšce 5000 ft

METAR: KRHP 200415Z AUTO 00000KT 10SM SCT050 04/03 A2995 RMK AO2 T00400026

Čas: 23:47 (04:47 UTC)


TAF: chybějící

Stav a předpovědi počasí z více než 4 000 letišť (zprávy METAR a TAF).

Červené a žluté tečky na mapě představují dostupné meteorologické stanice.

Když kurzor umístíte na tečku, zobrazí se název stanice.

Pak kliknutím zobrazíte stav a předpověď počasí.

Chcete-li změnit mapu, kliknutím na zelené tlačítko se znaménkem +mapu přiblížíte, kliknutím na zelené tlačítko se znaménkem – mapu oddálíte a kliknutím na zelené šipky přejdete na sousední mapy.


METAR-TAF: